• MPC Preparation (Info)

  • MPEC 2010-G99 : 2010 GC35

    The following Minor Planet Electronic Circular may be linked-to from your own Web pages, but must not otherwise be redistributed electronically.

    A form allowing access to any MPEC is at the bottom of this page.


    Read MPEC 2010-G98 Read MPEC 2010-G100


    M.P.E.C. 2010-G99                                Issued 2010 Apr. 13, 12:15 UT
    
         The Minor Planet Electronic Circulars contain information on unusual
             minor planets and routine data on comets.  They are published
       on behalf of Commission 20 of the International Astronomical Union by the
              Minor Planet Center, Smithsonian Astrophysical Observatory,
                              Cambridge, MA 02138, U.S.A.
    
                 Prepared using the Tamkin Foundation Computer Network
    
                                  MPC@CFA.HARVARD.EDU
           URL https://www.minorplanetcenter.org/iau/mpc.html  ISSN 1523-6714
    
                                       2010 GC35
    
    Observations:
         K10G35C* C2010 04 12.18851 09 47 33.50 +16 32 43.9          20.7 V EG099G96
         K10G35C  C2010 04 12.19439 09 47 34.94 +16 33 08.4          21.6 V EG099G96
         K10G35C  C2010 04 12.20035 09 47 36.42 +16 33 33.6          21.2 V EG099G96
         K10G35C  C2010 04 12.20632 09 47 37.89 +16 33 58.7          21.5 V EG099G96
         K10G35C  C2010 04 12.21322 09 47 39.57 +16 34 28.0          22.0 V EG099G96
         K10G35C  C2010 04 12.22268 09 47 41.89 +16 35 08.0          21.4 V EG099G96
         K10G35C  C2010 04 12.23230 09 47 44.26 +16 35 48.6          21.7 V EG099G96
         K10G35C  C2010 04 12.24191 09 47 46.63 +16 36 29.3          22.4 V EG099G96
         K10G35C KC2010 04 12.26183 09 47 51.42 +16 37 49.2          21.8 R EG099H01
         K10G35C KC2010 04 12.26864 09 47 53.14 +16 38 17.7          21.8 R EG099H01
         K10G35C KC2010 04 12.27760 09 47 55.42 +16 38 55.1          21.7 R EG099H01
         K10G35C KC2010 04 12.28239 09 47 56.66 +16 39 14.9          21.5 R EG099H01
         K10G35C  C2010 04 13.06780 09 51 40.35 +17 34 28.8          21.4 V EG099H21
         K10G35C  C2010 04 13.08108 09 51 43.74 +17 35 24.2          21.2 V EG099H21
         K10G35C  C2010 04 13.09433 09 51 47.06 +17 36 19.8          21.5 V EG099H21
         K10G35C  C2010 04 13.10810 09 51 50.48 +17 37 17.6          21.4 V EG099H21
         K10G35C KC2010 04 13.20352 09 52 16.33 +17 44 05.8          22.0 R EG099926
         K10G35C KC2010 04 13.23604 09 52 24.60 +17 46 20.3                 EG099926
    
    Observer details:
    926 Tenagra II Observatory.  Observers P. R. Holvorcem, M. Schwartz.  Measurer
        P. R. Holvorcem.  0.81-m f/7 Ritchey-Chretien + CCD.
    G96 Mt. Lemmon Survey.  Observer S. M. Larson.  Measurers J. D. Ahern,
        E. C. Beshore, A. Boattini, G. J. Garradd, A. R. Gibbs, A. D. Grauer,
        R. E. Hill, R. A. Kowalski, S. M. Larson, R. H. McNaught.  1.5-m reflector
        + CCD.
    H01 Magdalena Ridge Observatory, Socorro.  Observers W. H. Ryan, E. V. Ryan.
        Measurer W. H. Ryan.  2.4-m f/8.9 reflector + CCD.
    H21 Astronomical Research Observatory, Westfield.  Observer R. Holmes.
        Measurer H. Devore.  0.81-m f/4.0 astrograph + CCD.
    
    Orbital elements:
    2010 GC35                                                Earth MOID = 0.0586 AU
    Epoch 2010 July 23.0 TT = JDT 2455400.5                 MPC
    M  75.12875              (2000.0)            P               Q
    n   0.73768464     Peri.    1.94751     -0.95457377     +0.29534376
    a   1.2130784      Node   195.40778     -0.27535734     -0.92500117
    e   0.1272390      Incl.    8.55195     -0.11387387     -0.23905000
    P   1.34           H   24.6           G   0.15           U   8
    Residuals in seconds of arc
    100412 G96  0.0   0.3+    100412 G96  0.0   0.1+    100413 H21  0.1-  0.3+
    100412 G96  0.0   0.1-    100412 G96  0.2-  0.4+    100413 H21  0.5+  0.1-
    100412 G96  0.3+  0.2-    100412 H01  0.1-  0.1-    100413 H21  0.2+  0.0
    100412 G96  0.4+  0.3-    100412 H01  0.1-  0.0     100413 H21  0.5-  0.3+
    100412 G96  0.2+  0.1-    100412 H01  0.0   0.0     100413 926  0.4-  0.5-
    100412 G96  0.1+  0.0     100412 H01  0.2+  0.1-    100413 926  0.7+  0.1+
    
    Ephemeris:
    2010 GC35                a,e,i = 1.21, 0.13, 9                   q = 1.0587
    Date    TT    R. A. (2000) Decl.     Delta      r     Elong.  Phase     V
    2010 04 14    09 56.07   +18 39.2    0.102    1.059   120.7    54.5    21.8
    2010 04 15    10 00.89   +19 46.4    0.103    1.059   120.4    54.8    21.8
    2010 04 16    10 05.80   +20 51.7    0.103    1.059   120.0    55.2    21.8
    2010 04 17    10 10.80   +21 54.9    0.104    1.059   119.6    55.5    21.8
    2010 04 18    10 15.87   +22 56.0    0.105    1.059   119.2    55.8    21.9
    2010 04 19    10 21.02   +23 54.9    0.106    1.059   118.8    56.1    21.9
    2010 04 20    10 26.23   +24 51.4    0.107    1.060   118.5    56.4    21.9
    2010 04 21    10 31.50   +25 45.6    0.108    1.060   118.1    56.7    21.9
    2010 04 22    10 36.82   +26 37.4    0.109    1.060   117.7    57.0    22.0
    2010 04 23    10 42.19   +27 26.7    0.110    1.061   117.4    57.3    22.0
    2010 04 24    10 47.59   +28 13.6    0.112    1.061   117.1    57.6    22.0
    
    Timothy B. Spahr             (C) Copyright 2010 MPC           M.P.E.C. 2010-G99
    

    Read MPEC 2010-G98 Read MPEC 2010-G100


    MPEC number:

    Enter an MPEC number in one of the following forms:

    • 1997-B01 (the full form)
    • J97B01 (the packed version of the full form)
    • B01 (the abbreviated form)